Time,TemperatureF,DewpointF,PressureIn,WindDirection,WindDirectionDegrees,WindSpeedMPH,WindSpeedGustMPH,Humidity,HourlyPrecipIn,Conditions,Clouds,dailyrainin,SoftwareType,DateUTC
2013-10-27 00:01:00,42.2,38.6,29.83,South,172,2.0,2.0,87,0.00,,,0.00,Wunderground v.1.15,2013-10-27 04:01:00,
2013-10-27 00:02:00,42.2,38.6,29.83,West,260,2.0,2.0,87,0.00,,,0.00,Wunderground v.1.15,2013-10-27 04:02:00,
2013-10-27 00:04:00,42.2,38.9,29.84,SSW,208,1.0,2.0,88,0.00,,,0.00,Wunderground v.1.15,2013-10-27 04:04:00,
2013-10-27 00:05:00,42.1,38.8,29.84,West,271,1.0,2.0,88,0.00,,,0.00,Wunderground v.1.15,2013-10-27 04:05:00,
2013-10-27 00:06:00,42.1,38.8,29.84,NNW,330,1.0,2.0,88,0.00,,,0.00,Wunderground v.1.15,2013-10-27 04:06:00,
2013-10-27 00:08:00,42.2,38.6,29.84,WSW,257,1.0,3.0,87,0.00,,,0.00,Wunderground v.1.15,2013-10-27 04:08:00,
2013-10-27 00:13:00,42.2,38.6,29.83,ESE,113,2.0,2.0,87,0.00,,,0.00,Wunderground v.1.15,2013-10-27 04:13:00,
2013-10-27 00:18:00,42.1,38.5,29.84,SSW,211,1.0,3.0,87,0.00,,,0.00,Wunderground v.1.15,2013-10-27 04:18:00,
2013-10-27 00:23:00,42.1,38.8,29.83,WSW,252,1.0,1.0,88,0.00,,,0.00,Wunderground v.1.15,2013-10-27 04:23:00,
2013-10-27 00:28:00,42.0,38.7,29.84,WSW,246,0.0,1.0,88,0.00,,,0.00,Wunderground v.1.15,2013-10-27 04:28:00,
2013-10-27 00:33:00,41.9,38.6,29.84,SW,225,0.0,3.0,88,0.00,,,0.00,Wunderground v.1.15,2013-10-27 04:33:00,
2013-10-27 00:39:00,42.0,38.7,29.84,SW,225,1.0,3.0,88,0.00,,,0.00,Wunderground v.1.15,2013-10-27 04:39:00,
2013-10-27 00:44:00,41.9,38.3,29.84,North,11,1.0,2.0,87,0.00,,,0.00,Wunderground v.1.15,2013-10-27 04:44:00,
2013-10-27 00:49:00,41.8,38.2,29.84,SSW,205,1.0,6.0,87,0.00,,,0.00,Wunderground v.1.15,2013-10-27 04:49:00,
2013-10-27 00:55:00,41.8,37.9,29.84,South,184,1.0,3.0,86,0.00,,,0.00,Wunderground v.1.15,2013-10-27 04:55:00,
2013-10-27 01:01:00,41.9,38.0,29.84,East,87,1.0,6.0,86,0.00,,,0.00,Wunderground v.1.15,2013-10-27 05:01:00,
2013-10-27 01:06:00,41.8,37.9,29.84,WSW,248,1.0,6.0,86,0.00,,,0.00,Wunderground v.1.15,2013-10-27 05:06:00,
2013-10-27 01:11:00,41.8,38.2,29.85,WSW,249,2.0,2.0,87,0.00,,,0.00,Wunderground v.1.15,2013-10-27 05:11:00,
2013-10-27 01:17:00,41.6,38.0,29.85,West,281,2.0,7.0,87,0.00,,,0.00,Wunderground v.1.15,2013-10-27 05:17:00,
2013-10-27 01:23:00,41.5,37.6,29.85,SSW,208,2.0,5.0,86,0.00,,,0.00,Wunderground v.1.15,2013-10-27 05:23:00,
2013-10-27 01:28:00,41.3,37.7,29.85,NW,322,1.0,5.0,87,0.00,,,0.00,Wunderground v.1.15,2013-10-27 05:28:00,
2013-10-27 01:34:00,41.1,37.5,29.85,WNW,290,2.0,3.0,87,0.00,,,0.00,Wunderground v.1.15,2013-10-27 05:34:00,
2013-10-27 01:39:00,40.8,37.2,29.85,West,264,2.0,4.0,87,0.00,,,0.00,Wunderground v.1.15,2013-10-27 05:39:00,
2013-10-27 01:44:00,40.6,37.0,29.86,WSW,255,1.0,2.0,87,0.00,,,0.00,Wunderground v.1.15,2013-10-27 05:44:00,
2013-10-27 01:49:00,40.4,37.1,29.86,SSE,165,1.0,6.0,88,0.00,,,0.00,Wunderground v.1.15,2013-10-27 05:49:00,
2013-10-27 01:55:00,40.1,36.8,29.86,North,359,1.0,1.0,88,0.00,,,0.00,Wunderground v.1.15,2013-10-27 05:55:00,
2013-10-27 02:00:00,39.9,36.6,29.86,West,267,1.0,1.0,88,0.00,,,0.00,Wunderground v.1.15,2013-10-27 06:00:00,
2013-10-27 02:06:00,39.8,36.5,29.86,East,98,2.0,2.0,88,0.00,,,0.00,Wunderground v.1.15,2013-10-27 06:06:00,
2013-10-27 02:12:00,39.7,36.4,29.87,West,269,2.0,2.0,88,0.00,,,0.00,Wunderground v.1.15,2013-10-27 06:12:00,
2013-10-27 02:17:00,39.6,36.3,29.87,South,177,1.0,4.0,88,0.00,,,0.00,Wunderground v.1.15,2013-10-27 06:17:00,
2013-10-27 02:22:00,39.5,36.5,29.87,SSE,162,1.0,2.0,89,0.00,,,0.00,Wunderground v.1.15,2013-10-27 06:22:00,
2013-10-27 02:28:00,39.3,36.3,29.87,SE,136,1.0,3.0,89,0.00,,,0.00,Wunderground v.1.15,2013-10-27 06:28:00,
2013-10-27 02:34:00,39.2,36.2,29.87,SSE,152,1.0,1.0,89,0.00,,,0.00,Wunderground v.1.15,2013-10-27 06:34:00,
2013-10-27 02:39:00,39.1,36.1,29.88,SW,225,1.0,1.0,89,0.00,,,0.00,Wunderground v.1.15,2013-10-27 06:39:00,
2013-10-27 02:45:00,39.0,36.3,29.88,NNE,15,1.0,6.0,90,0.00,,,0.00,Wunderground v.1.15,2013-10-27 06:45:00,
2013-10-27 02:51:00,38.9,36.2,29.88,NW,314,0.0,1.0,90,0.00,,,0.00,Wunderground v.1.15,2013-10-27 06:51:00,
2013-10-27 02:57:00,38.8,36.1,29.88,West,271,0.0,2.0,90,0.00,,,0.00,Wunderground v.1.15,2013-10-27 06:57:00,
2013-10-27 03:02:00,38.8,36.1,29.88,SSW,204,1.0,1.0,90,0.00,,,0.00,Wunderground v.1.15,2013-10-27 07:02:00,
2013-10-27 03:08:00,38.8,36.1,29.88,SW,219,1.0,4.0,90,0.00,,,0.00,Wunderground v.1.15,2013-10-27 07:08:00,
2013-10-27 03:14:00,38.7,36.0,29.88,West,269,1.0,5.0,90,0.00,,,0.00,Wunderground v.1.15,2013-10-27 07:14:00,
2013-10-27 03:19:00,38.8,36.1,29.89,SW,217,1.0,5.0,90,0.00,,,0.00,Wunderground v.1.15,2013-10-27 07:19:00,
2013-10-27 03:24:00,38.8,36.1,29.89,WNW,288,1.0,4.0,90,0.00,,,0.00,Wunderground v.1.15,2013-10-27 07:24:00,
2013-10-27 03:29:00,38.8,36.1,29.89,West,281,1.0,6.0,90,0.00,,,0.00,Wunderground v.1.15,2013-10-27 07:29:00,
2013-10-27 03:35:00,38.8,36.1,29.89,WNW,294,1.0,4.0,90,0.00,,,0.00,Wunderground v.1.15,2013-10-27 07:35:00,
2013-10-27 03:41:00,38.6,35.9,29.89,WSW,252,1.0,1.0,90,0.00,,,0.00,Wunderground v.1.15,2013-10-27 07:41:00,
2013-10-27 03:47:00,38.5,35.8,29.89,NNE,20,0.0,1.0,90,0.00,,,0.00,Wunderground v.1.15,2013-10-27 07:47:00,
2013-10-27 03:54:00,38.3,35.6,29.89,WSW,255,0.0,1.0,90,0.00,,,0.00,Wunderground v.1.15,2013-10-27 07:54:00,
2013-10-27 03:59:00,38.1,35.7,29.89,ENE,63,0.0,1.0,91,0.00,,,0.00,Wunderground v.1.15,2013-10-27 07:59:00,
2013-10-27 04:05:00,38.1,35.7,29.89,West,274,1.0,1.0,91,0.00,,,0.00,Wunderground v.1.15,2013-10-27 08:05:00,
2013-10-27 04:11:00,38.1,35.7,29.89,North,8,1.0,1.0,91,0.00,,,0.00,Wunderground v.1.15,2013-10-27 08:11:00,
2013-10-27 04:16:00,38.1,35.7,29.89,WSW,240,1.0,1.0,91,0.00,,,0.00,Wunderground v.1.15,2013-10-27 08:16:00,
2013-10-27 04:21:00,38.1,35.7,29.89,South,183,1.0,1.0,91,0.00,,,0.00,Wunderground v.1.15,2013-10-27 08:21:00,
2013-10-27 04:26:00,38.0,35.6,29.89,WSW,244,1.0,2.0,91,0.00,,,0.00,Wunderground v.1.15,2013-10-27 08:26:00,
2013-10-27 04:32:00,37.9,35.5,29.89,West,274,1.0,2.0,91,0.00,,,0.00,Wunderground v.1.15,2013-10-27 08:32:00,
2013-10-27 04:37:00,37.8,35.4,29.89,NW,322,1.0,3.0,91,0.00,,,0.00,Wunderground v.1.15,2013-10-27 08:37:00,
2013-10-27 04:42:00,37.7,35.3,29.89,WNW,283,0.0,1.0,91,0.00,,,0.00,Wunderground v.1.15,2013-10-27 08:42:00,
2013-10-27 04:48:00,37.5,35.1,29.89,WNW,285,0.0,1.0,91,0.00,,,0.00,Wunderground v.1.15,2013-10-27 08:48:00,
2013-10-27 04:53:00,37.4,35.0,29.90,SW,233,0.0,1.0,91,0.00,,,0.00,Wunderground v.1.15,2013-10-27 08:53:00,
2013-10-27 04:59:00,37.3,35.2,29.90,NW,322,0.0,1.0,92,0.00,,,0.00,Wunderground v.1.15,2013-10-27 08:59:00,
2013-10-27 05:04:00,37.1,35.0,29.90,SSW,207,0.0,0.0,92,0.00,,,0.00,Wunderground v.1.15,2013-10-27 09:04:00,
2013-10-27 05:10:00,37.0,34.9,29.90,WNW,298,0.0,0.0,92,0.00,,,0.00,Wunderground v.1.15,2013-10-27 09:10:00,
2013-10-27 05:16:00,36.9,35.1,29.90,NNW,328,0.0,1.0,93,0.00,,,0.00,Wunderground v.1.15,2013-10-27 09:16:00,
2013-10-27 05:22:00,36.9,35.1,29.91,WNW,285,0.0,1.0,93,0.00,,,0.00,Wunderground v.1.15,2013-10-27 09:22:00,
2013-10-27 05:27:00,37.1,35.3,29.91,SW,215,1.0,4.0,93,0.00,,,0.00,Wunderground v.1.15,2013-10-27 09:27:00,
2013-10-27 05:32:00,37.3,35.5,29.91,NNW,345,1.0,1.0,93,0.00,,,0.00,Wunderground v.1.15,2013-10-27 09:32:00,
2013-10-27 05:38:00,37.4,35.3,29.91,SW,219,1.0,1.0,92,0.00,,,0.00,Wunderground v.1.15,2013-10-27 09:38:00,
2013-10-27 05:43:00,37.4,35.6,29.91,SSW,194,1.0,1.0,93,0.00,,,0.00,Wunderground v.1.15,2013-10-27 09:43:00,
2013-10-27 05:49:00,37.3,35.5,29.91,South,183,1.0,2.0,93,0.00,,,0.00,Wunderground v.1.15,2013-10-27 09:49:00,
2013-10-27 05:54:00,37.4,35.6,29.91,WSW,252,1.0,1.0,93,0.00,,,0.00,Wunderground v.1.15,2013-10-27 09:54:00,
2013-10-27 05:59:00,37.4,35.3,29.92,WSW,249,1.0,3.0,92,0.00,,,0.00,Wunderground v.1.15,2013-10-27 09:59:00,
2013-10-27 06:05:00,37.5,35.4,29.92,WNW,285,1.0,2.0,92,0.00,,,0.00,Wunderground v.1.15,2013-10-27 10:05:00,
2013-10-27 06:11:00,37.5,35.4,29.92,SE,145,1.0,2.0,92,0.00,,,0.00,Wunderground v.1.15,2013-10-27 10:11:00,
2013-10-27 06:17:00,37.6,35.5,29.93,WSW,257,1.0,4.0,92,0.00,,,0.00,Wunderground v.1.15,2013-10-27 10:17:00,
2013-10-27 06:24:00,37.6,35.5,29.92,SSW,197,1.0,2.0,92,0.00,,,0.00,Wunderground v.1.15,2013-10-27 10:24:00,
2013-10-27 06:29:00,37.5,35.4,29.93,North,355,0.0,2.0,92,0.00,,,0.00,Wunderground v.1.15,2013-10-27 10:29:00,
2013-10-27 06:34:00,37.5,35.4,29.93,SSE,165,0.0,2.0,92,0.00,,,0.00,Wunderground v.1.15,2013-10-27 10:34:00,
2013-10-27 06:39:00,37.6,35.5,29.93,SSE,153,1.0,3.0,92,0.00,,,0.00,Wunderground v.1.15,2013-10-27 10:39:00,
2013-10-27 06:45:00,37.7,35.6,29.93,WSW,252,1.0,3.0,92,0.00,,,0.00,Wunderground v.1.15,2013-10-27 10:45:00,
2013-10-27 06:51:00,37.7,35.6,29.93,SE,135,1.0,1.0,92,0.00,,,0.00,Wunderground v.1.15,2013-10-27 10:51:00,
2013-10-27 06:57:00,37.6,35.5,29.93,South,191,0.0,1.0,92,0.00,,,0.00,Wunderground v.1.15,2013-10-27 10:57:00,
2013-10-27 07:02:00,37.6,35.5,29.93,WSW,243,0.0,1.0,92,0.00,,,0.00,Wunderground v.1.15,2013-10-27 11:02:00,
2013-10-27 07:07:00,37.6,35.5,29.93,WNW,283,0.0,2.0,92,0.00,,,0.00,Wunderground v.1.15,2013-10-27 11:07:00,
2013-10-27 07:13:00,37.6,35.5,29.93,SSE,167,1.0,2.0,92,0.00,,,0.00,Wunderground v.1.15,2013-10-27 11:13:00,
2013-10-27 07:18:00,37.5,35.4,29.94,NNW,343,1.0,2.0,92,0.00,,,0.00,Wunderground v.1.15,2013-10-27 11:18:00,
2013-10-27 07:24:00,37.5,35.4,29.94,SW,235,1.0,1.0,92,0.00,,,0.00,Wunderground v.1.15,2013-10-27 11:24:00,
2013-10-27 07:30:00,37.4,35.3,29.94,WNW,284,1.0,1.0,92,0.00,,,0.00,Wunderground v.1.15,2013-10-27 11:30:00,
2013-10-27 07:36:00,37.3,35.2,29.94,ESE,118,1.0,1.0,92,0.00,,,0.00,Wunderground v.1.15,2013-10-27 11:36:00,
2013-10-27 07:41:00,37.2,35.1,29.95,SSW,203,1.0,1.0,92,0.00,,,0.00,Wunderground v.1.15,2013-10-27 11:41:00,
2013-10-27 07:47:00,37.1,35.0,29.95,NW,310,0.0,2.0,92,0.00,,,0.00,Wunderground v.1.15,2013-10-27 11:47:00,
2013-10-27 07:53:00,37.0,35.2,29.95,SSW,207,1.0,3.0,93,0.00,,,0.00,Wunderground v.1.15,2013-10-27 11:53:00,
2013-10-27 07:59:00,37.0,35.2,29.95,SW,228,1.0,3.0,93,0.00,,,0.00,Wunderground v.1.15,2013-10-27 11:59:00,
2013-10-27 08:04:00,37.0,35.2,29.95,NNE,27,1.0,1.0,93,0.00,,,0.00,Wunderground v.1.15,2013-10-27 12:04:00,
2013-10-27 08:10:00,37.0,35.2,29.95,NW,309,1.0,1.0,93,0.00,,,0.00,Wunderground v.1.15,2013-10-27 12:10:00,
2013-10-27 08:16:00,37.1,35.3,29.95,WNW,288,1.0,3.0,93,0.00,,,0.00,Wunderground v.1.15,2013-10-27 12:16:00,
2013-10-27 08:22:00,37.2,35.4,29.96,NW,321,0.0,1.0,93,0.00,,,0.00,Wunderground v.1.15,2013-10-27 12:22:00,
2013-10-27 08:28:00,37.5,35.4,29.96,WNW,298,0.0,1.0,92,0.00,,,0.00,Wunderground v.1.15,2013-10-27 12:28:00,
2013-10-27 08:31:00,37.6,35.5,29.96,SW,224,0.0,5.0,92,0.00,,,0.00,Wunderground v.1.15,2013-10-27 12:31:00,
2013-10-27 08:36:00,37.8,35.7,29.97,SW,221,0.0,5.0,92,0.00,,,0.00,Wunderground v.1.15,2013-10-27 12:36:00,
2013-10-27 08:41:00,38.0,35.9,29.97,WSW,243,1.0,4.0,92,0.00,,,0.00,Wunderground v.1.15,2013-10-27 12:41:00,
2013-10-27 08:46:00,38.1,35.7,29.97,SSW,207,1.0,4.0,91,0.00,,,0.00,Wunderground v.1.15,2013-10-27 12:46:00,
2013-10-27 08:52:00,38.3,35.9,29.97,South,177,1.0,4.0,91,0.00,,,0.00,Wunderground v.1.15,2013-10-27 12:52:00,
2013-10-27 08:57:00,38.3,35.9,29.97,WSW,237,1.0,4.0,91,0.00,,,0.00,Wunderground v.1.15,2013-10-27 12:57:00,
2013-10-27 09:04:00,38.5,35.8,29.98,SW,226,1.0,3.0,90,0.00,,,0.00,Wunderground v.1.15,2013-10-27 13:04:00,
2013-10-27 09:09:00,38.7,36.0,29.98,ENE,70,1.0,3.0,90,0.00,,,0.00,Wunderground v.1.15,2013-10-27 13:09:00,
2013-10-27 09:14:00,38.9,36.2,29.98,WSW,246,1.0,1.0,90,0.00,,,0.00,Wunderground v.1.15,2013-10-27 13:14:00,
2013-10-27 09:20:00,39.1,36.1,29.98,SSW,212,1.0,1.0,89,0.00,,,0.00,Wunderground v.1.15,2013-10-27 13:20:00,
2013-10-27 09:25:00,39.3,36.3,29.98,SW,220,1.0,2.0,89,0.00,,,0.00,Wunderground v.1.15,2013-10-27 13:25:00,
2013-10-27 09:31:00,39.4,36.4,29.98,WSW,248,0.0,1.0,89,0.00,,,0.00,Wunderground v.1.15,2013-10-27 13:31:00,
2013-10-27 09:36:00,39.6,36.6,29.99,NW,316,0.0,2.0,89,0.00,,,0.00,Wunderground v.1.15,2013-10-27 13:36:00,
2013-10-27 09:41:00,39.7,36.7,29.99,WNW,301,1.0,1.0,89,0.00,,,0.00,Wunderground v.1.15,2013-10-27 13:41:00,
2013-10-27 09:47:00,39.8,36.5,29.99,NNW,327,1.0,3.0,88,0.00,,,0.00,Wunderground v.1.15,2013-10-27 13:47:00,
2013-10-27 09:53:00,40.0,36.7,29.99,NW,322,0.0,1.0,88,0.00,,,0.00,Wunderground v.1.15,2013-10-27 13:53:00,
2013-10-27 09:59:00,40.5,37.2,29.99,West,269,0.0,2.0,88,0.00,,,0.00,Wunderground v.1.15,2013-10-27 13:59:00,
2013-10-27 10:04:00,40.8,37.2,29.99,SSW,195,1.0,1.0,87,0.00,,,0.00,Wunderground v.1.15,2013-10-27 14:04:00,
2013-10-27 10:10:00,41.1,37.5,29.99,WNW,298,1.0,2.0,87,0.00,,,0.00,Wunderground v.1.15,2013-10-27 14:10:00,
2013-10-27 10:16:00,41.4,37.5,30.00,NNE,14,0.0,2.0,86,0.00,,,0.00,Wunderground v.1.15,2013-10-27 14:16:00,
2013-10-27 10:21:00,41.5,37.3,29.99,SSW,211,1.0,4.0,85,0.00,,,0.00,Wunderground v.1.15,2013-10-27 14:21:00,
2013-10-27 10:27:00,41.6,37.4,30.00,West,280,1.0,4.0,85,0.00,,,0.00,Wunderground v.1.15,2013-10-27 14:27:00,
2013-10-27 10:32:00,41.7,37.8,30.00,WSW,245,1.0,3.0,86,0.00,,,0.00,Wunderground v.1.15,2013-10-27 14:32:00,
2013-10-27 10:39:00,42.0,37.5,30.00,SW,221,1.0,3.0,84,0.00,,,0.00,Wunderground v.1.15,2013-10-27 14:39:00,
2013-10-27 10:44:00,42.3,37.8,30.00,SSW,201,1.0,2.0,84,0.00,,,0.00,Wunderground v.1.15,2013-10-27 14:44:00,
2013-10-27 10:49:00,42.5,37.7,30.00,West,259,1.0,2.0,83,0.00,,,0.00,Wunderground v.1.15,2013-10-27 14:49:00,
2013-10-27 10:55:00,42.9,37.8,30.00,West,281,1.0,3.0,82,0.00,,,0.00,Wunderground v.1.15,2013-10-27 14:55:00,
2013-10-27 11:00:00,43.1,38.0,30.00,NW,316,1.0,1.0,82,0.00,,,0.00,Wunderground v.1.15,2013-10-27 15:00:00,
2013-10-27 11:06:00,43.3,37.9,30.00,SW,236,1.0,4.0,81,0.00,,,0.00,Wunderground v.1.15,2013-10-27 15:06:00,
2013-10-27 11:11:00,43.4,38.0,30.00,West,269,1.0,1.0,81,0.00,,,0.00,Wunderground v.1.15,2013-10-27 15:11:00,
2013-10-27 11:16:00,43.3,37.5,30.00,South,188,1.0,2.0,80,0.00,,,0.00,Wunderground v.1.15,2013-10-27 15:16:00,
2013-10-27 11:22:00,43.3,37.5,30.01,West,276,1.0,2.0,80,0.00,,,0.00,Wunderground v.1.15,2013-10-27 15:22:00,
2013-10-27 11:27:00,43.3,37.5,30.01,WNW,287,1.0,2.0,80,0.00,,,0.00,Wunderground v.1.15,2013-10-27 15:27:00,
2013-10-27 11:34:00,43.6,38.2,30.01,NNE,25,1.0,3.0,81,0.00,,,0.00,Wunderground v.1.15,2013-10-27 15:34:00,
2013-10-27 11:39:00,43.9,37.8,30.01,WNW,298,1.0,3.0,79,0.00,,,0.00,Wunderground v.1.15,2013-10-27 15:39:00,
2013-10-27 11:44:00,44.5,38.1,30.01,WSW,243,1.0,2.0,78,0.00,,,0.00,Wunderground v.1.15,2013-10-27 15:44:00,
2013-10-27 11:50:00,45.1,38.3,30.01,WSW,246,1.0,4.0,77,0.00,,,0.00,Wunderground v.1.15,2013-10-27 15:50:00,
2013-10-27 11:55:00,45.2,37.7,30.01,SSW,212,2.0,4.0,75,0.00,,,0.00,Wunderground v.1.15,2013-10-27 15:55:00,
2013-10-27 12:01:00,45.6,38.1,30.01,SW,228,1.0,3.0,75,0.00,,,0.00,Wunderground v.1.15,2013-10-27 16:01:00,
2013-10-27 12:07:00,46.3,38.5,30.01,North,8,1.0,4.0,74,0.00,,,0.00,Wunderground v.1.15,2013-10-27 16:07:00,
2013-10-27 12:12:00,46.4,38.2,30.01,WNW,302,2.0,2.0,73,0.00,,,0.00,Wunderground v.1.15,2013-10-27 16:12:00,
2013-10-27 12:19:00,46.7,38.1,30.01,WSW,238,1.0,2.0,72,0.00,,,0.00,Wunderground v.1.15,2013-10-27 16:19:00,
2013-10-27 12:24:00,47.1,38.5,30.01,West,277,1.0,2.0,72,0.00,,,0.00,Wunderground v.1.15,2013-10-27 16:24:00,
2013-10-27 12:30:00,47.5,38.2,30.01,SE,146,1.0,3.0,70,0.00,,,0.00,Wunderground v.1.15,2013-10-27 16:30:00,
2013-10-27 12:36:00,47.5,37.1,30.01,SW,218,2.0,7.0,67,0.00,,,0.00,Wunderground v.1.15,2013-10-27 16:36:00,
2013-10-27 12:42:00,47.1,36.7,30.01,West,266,2.0,6.0,67,0.00,,,0.00,Wunderground v.1.15,2013-10-27 16:42:00,
2013-10-27 12:48:00,46.7,36.7,30.01,WSW,253,3.0,6.0,68,0.00,,,0.00,Wunderground v.1.15,2013-10-27 16:48:00,
2013-10-27 12:54:00,46.8,36.8,30.01,SW,232,2.0,2.0,68,0.00,,,0.00,Wunderground v.1.15,2013-10-27 16:54:00,
2013-10-27 12:59:00,47.1,37.1,30.00,West,259,1.0,2.0,68,0.00,,,0.00,Wunderground v.1.15,2013-10-27 16:59:00,
2013-10-27 13:04:00,47.3,37.6,30.00,NW,317,1.0,3.0,69,0.00,,,0.00,Wunderground v.1.15,2013-10-27 17:04:00,
2013-10-27 13:10:00,47.6,37.2,30.00,East,87,1.0,1.0,67,0.00,,,0.00,Wunderground v.1.15,2013-10-27 17:10:00,
2013-10-27 13:16:00,47.5,35.9,30.00,NNW,340,1.0,5.0,64,0.00,,,0.00,Wunderground v.1.15,2013-10-27 17:16:00,
2013-10-27 13:21:00,46.9,35.0,30.00,SE,131,2.0,2.0,63,0.00,,,0.00,Wunderground v.1.15,2013-10-27 17:21:00,
2013-10-27 13:27:00,46.5,35.0,30.00,SW,236,2.0,6.0,64,0.00,,,0.00,Wunderground v.1.15,2013-10-27 17:27:00,
2013-10-27 13:34:00,46.6,35.8,30.00,NNE,25,2.0,3.0,66,0.00,,,0.00,Wunderground v.1.15,2013-10-27 17:34:00,
2013-10-27 13:39:00,47.6,36.0,30.00,SSE,164,2.0,3.0,64,0.00,,,0.00,Wunderground v.1.15,2013-10-27 17:39:00,
2013-10-27 13:44:00,48.5,33.9,29.99,SSW,210,2.0,5.0,57,0.00,,,0.00,Wunderground v.1.15,2013-10-27 17:44:00,
2013-10-27 13:50:00,49.0,34.4,30.00,SSW,203,3.0,3.0,57,0.00,,,0.00,Wunderground v.1.15,2013-10-27 17:50:00,
2013-10-27 13:55:00,49.3,34.7,29.99,South,191,3.0,4.0,57,0.00,,,0.00,Wunderground v.1.15,2013-10-27 17:55:00,
2013-10-27 14:00:00,49.8,34.7,29.99,SW,231,2.0,2.0,56,0.00,,,0.00,Wunderground v.1.15,2013-10-27 18:00:00,
2013-10-27 14:06:00,49.4,34.3,29.99,SSW,201,2.0,7.0,56,0.00,,,0.00,Wunderground v.1.15,2013-10-27 18:06:00,
2013-10-27 14:11:00,48.4,33.9,29.99,WSW,238,3.0,3.0,57,0.00,,,0.00,Wunderground v.1.15,2013-10-27 18:11:00,
2013-10-27 14:17:00,48.4,34.7,29.99,ESE,118,2.0,3.0,59,0.00,,,0.00,Wunderground v.1.15,2013-10-27 18:17:00,
2013-10-27 14:22:00,49.5,34.9,30.00,WSW,243,2.0,5.0,57,0.00,,,0.00,Wunderground v.1.15,2013-10-27 18:22:00,
2013-10-27 14:27:00,50.1,35.4,30.00,NNW,329,3.0,8.0,57,0.00,,,0.00,Wunderground v.1.15,2013-10-27 18:27:00,
2013-10-27 14:34:00,50.1,35.4,30.00,SSE,166,3.0,5.0,57,0.00,,,0.00,Wunderground v.1.15,2013-10-27 18:34:00,
2013-10-27 14:39:00,49.2,34.6,30.00,WNW,293,3.0,8.0,57,0.00,,,0.00,Wunderground v.1.15,2013-10-27 18:39:00,
2013-10-27 14:45:00,48.2,34.1,30.00,SW,236,2.0,3.0,58,0.00,,,0.00,Wunderground v.1.15,2013-10-27 18:45:00,
2013-10-27 14:50:00,47.6,34.8,30.00,WSW,249,2.0,2.0,61,0.00,,,0.00,Wunderground v.1.15,2013-10-27 18:50:00,
2013-10-27 14:56:00,47.2,34.4,30.00,SSE,152,2.0,6.0,61,0.00,,,0.00,Wunderground v.1.15,2013-10-27 18:56:00,
2013-10-27 15:02:00,47.0,33.8,30.00,West,280,2.0,3.0,60,0.00,,,0.00,Wunderground v.1.15,2013-10-27 19:02:00,
2013-10-27 15:07:00,47.0,34.6,30.00,West,276,2.0,3.0,62,0.00,,,0.00,Wunderground v.1.15,2013-10-27 19:07:00,
2013-10-27 15:12:00,47.1,34.7,30.00,SE,139,1.0,2.0,62,0.00,,,0.00,Wunderground v.1.15,2013-10-27 19:12:00,
2013-10-27 15:17:00,47.2,35.2,30.00,SSE,160,1.0,2.0,63,0.00,,,0.00,Wunderground v.1.15,2013-10-27 19:17:00,
2013-10-27 15:22:00,47.3,34.9,30.00,South,186,1.0,1.0,62,0.00,,,0.00,Wunderground v.1.15,2013-10-27 19:22:00,
2013-10-27 15:28:00,47.2,34.8,30.00,SSW,207,2.0,6.0,62,0.00,,,0.00,Wunderground v.1.15,2013-10-27 19:28:00,
2013-10-27 15:34:00,47.6,35.2,30.00,South,190,3.0,9.0,62,0.00,,,0.00,Wunderground v.1.15,2013-10-27 19:34:00,
2013-10-27 15:39:00,47.6,34.8,30.00,WNW,290,3.0,9.0,61,0.00,,,0.00,Wunderground v.1.15,2013-10-27 19:39:00,
2013-10-27 15:44:00,47.3,34.5,30.00,North,352,2.0,4.0,61,0.00,,,0.00,Wunderground v.1.15,2013-10-27 19:44:00,
2013-10-27 15:49:00,47.5,34.7,30.01,WSW,248,2.0,8.0,61,0.00,,,0.00,Wunderground v.1.15,2013-10-27 19:49:00,
2013-10-27 15:54:00,47.9,35.1,30.00,SSW,210,3.0,3.0,61,0.00,,,0.00,Wunderground v.1.15,2013-10-27 19:54:00,
2013-10-27 16:00:00,48.5,34.8,30.00,South,184,2.0,5.0,59,0.00,,,0.00,Wunderground v.1.15,2013-10-27 20:00:00,
2013-10-27 16:05:00,47.6,33.5,30.00,SSW,205,2.0,5.0,58,0.00,,,0.00,Wunderground v.1.15,2013-10-27 20:05:00,
2013-10-27 16:10:00,47.0,33.8,30.01,West,260,3.0,3.0,60,0.00,,,0.00,Wunderground v.1.15,2013-10-27 20:10:00,
2013-10-27 16:15:00,46.7,34.4,30.01,WSW,243,2.0,4.0,62,0.00,,,0.00,Wunderground v.1.15,2013-10-27 20:15:00,
2013-10-27 16:20:00,46.4,34.1,30.01,NNW,327,2.0,4.0,62,0.00,,,0.00,Wunderground v.1.15,2013-10-27 20:20:00,
2013-10-27 16:26:00,46.3,34.0,30.01,SE,146,2.0,4.0,62,0.00,,,0.00,Wunderground v.1.15,2013-10-27 20:26:00,
2013-10-27 16:32:00,46.2,34.3,30.01,SSW,201,2.0,2.0,63,0.00,,,0.00,Wunderground v.1.15,2013-10-27 20:32:00,
2013-10-27 16:37:00,46.2,34.3,30.01,SW,221,1.0,3.0,63,0.00,,,0.00,Wunderground v.1.15,2013-10-27 20:37:00,
2013-10-27 16:43:00,46.1,33.8,30.01,SSW,201,1.0,3.0,62,0.00,,,0.00,Wunderground v.1.15,2013-10-27 20:43:00,
2013-10-27 16:48:00,46.1,33.8,30.01,WSW,243,1.0,4.0,62,0.00,,,0.00,Wunderground v.1.15,2013-10-27 20:48:00,
2013-10-27 16:53:00,46.1,33.8,30.01,SSW,205,2.0,2.0,62,0.00,,,0.00,Wunderground v.1.15,2013-10-27 20:53:00,
2013-10-27 16:59:00,46.2,33.9,30.01,NE,56,1.0,2.0,62,0.00,,,0.00,Wunderground v.1.15,2013-10-27 20:59:00,
2013-10-27 17:04:00,46.1,33.4,30.02,SSW,203,1.0,6.0,61,0.00,,,0.00,Wunderground v.1.15,2013-10-27 21:04:00,
2013-10-27 17:09:00,46.1,33.4,30.02,SSW,208,1.0,6.0,61,0.00,,,0.00,Wunderground v.1.15,2013-10-27 21:09:00,
2013-10-27 17:15:00,46.0,33.7,30.02,WSW,250,1.0,3.0,62,0.00,,,0.00,Wunderground v.1.15,2013-10-27 21:15:00,
2013-10-27 17:21:00,45.9,33.2,30.02,WNW,302,1.0,2.0,61,0.00,,,0.00,Wunderground v.1.15,2013-10-27 21:21:00,
2013-10-27 17:27:00,45.9,33.6,30.02,SE,135,1.0,2.0,62,0.00,,,0.00,Wunderground v.1.15,2013-10-27 21:27:00,
2013-10-27 17:33:00,45.8,32.7,30.02,South,170,1.0,3.0,60,0.00,,,0.00,Wunderground v.1.15,2013-10-27 21:33:00,
2013-10-27 17:39:00,45.8,32.7,30.02,West,278,1.0,3.0,60,0.00,,,0.00,Wunderground v.1.15,2013-10-27 21:39:00,
2013-10-27 17:44:00,45.7,32.6,30.02,SSW,210,1.0,3.0,60,0.00,,,0.00,Wunderground v.1.15,2013-10-27 21:44:00,
2013-10-27 17:50:00,45.6,32.5,30.02,WNW,295,2.0,2.0,60,0.00,,,0.00,Wunderground v.1.15,2013-10-27 21:50:00,
2013-10-27 17:55:00,45.5,32.4,30.03,WSW,249,2.0,4.0,60,0.00,,,0.00,Wunderground v.1.15,2013-10-27 21:55:00,
2013-10-27 18:01:00,45.4,32.3,30.03,SSE,159,1.0,6.0,60,0.00,,,0.00,Wunderground v.1.15,2013-10-27 22:01:00,
2013-10-27 18:06:00,45.2,32.1,30.03,South,190,1.0,6.0,60,0.00,,,0.00,Wunderground v.1.15,2013-10-27 22:06:00,
2013-10-27 18:11:00,45.0,31.9,30.03,WSW,238,1.0,2.0,60,0.00,,,0.00,Wunderground v.1.15,2013-10-27 22:11:00,
2013-10-27 18:17:00,44.7,31.7,30.03,West,280,1.0,3.0,60,0.00,,,0.00,Wunderground v.1.15,2013-10-27 22:17:00,
2013-10-27 18:22:00,44.6,31.6,30.03,SSW,200,1.0,1.0,60,0.00,,,0.00,Wunderground v.1.15,2013-10-27 22:22:00,
2013-10-27 18:28:00,44.5,31.1,30.03,SSW,211,1.0,3.0,59,0.00,,,0.00,Wunderground v.1.15,2013-10-27 22:28:00,
2013-10-27 18:34:00,44.5,31.1,30.03,WSW,248,1.0,3.0,59,0.00,,,0.00,Wunderground v.1.15,2013-10-27 22:34:00,
2013-10-27 18:39:00,44.4,31.0,30.03,NW,319,1.0,3.0,59,0.00,,,0.00,Wunderground v.1.15,2013-10-27 22:39:00,
2013-10-27 18:44:00,44.1,31.1,30.03,South,180,1.0,2.0,60,0.00,,,0.00,Wunderground v.1.15,2013-10-27 22:44:00,
2013-10-27 18:50:00,43.8,31.2,30.04,WSW,256,0.0,1.0,61,0.00,,,0.00,Wunderground v.1.15,2013-10-27 22:50:00,
2013-10-27 18:55:00,43.6,31.4,30.04,NNW,328,0.0,3.0,62,0.00,,,0.00,Wunderground v.1.15,2013-10-27 22:55:00,
2013-10-27 19:00:00,43.6,31.4,30.04,SW,221,1.0,1.0,62,0.00,,,0.00,Wunderground v.1.15,2013-10-27 23:00:00,
2013-10-27 19:06:00,43.5,31.7,30.04,West,264,0.0,1.0,63,0.00,,,0.00,Wunderground v.1.15,2013-10-27 23:06:00,
2013-10-27 19:12:00,43.5,31.7,30.04,NW,317,0.0,2.0,63,0.00,,,0.00,Wunderground v.1.15,2013-10-27 23:12:00,
2013-10-27 19:17:00,43.3,31.5,30.04,WSW,251,0.0,2.0,63,0.00,,,0.00,Wunderground v.1.15,2013-10-27 23:17:00,
2013-10-27 19:22:00,43.1,31.4,30.04,West,277,0.0,1.0,63,0.00,,,0.00,Wunderground v.1.15,2013-10-27 23:22:00,
2013-10-27 19:28:00,42.7,31.7,30.04,WSW,240,0.0,1.0,65,0.00,,,0.00,Wunderground v.1.15,2013-10-27 23:28:00,
2013-10-27 19:33:00,42.4,31.5,30.04,NW,309,0.0,1.0,65,0.00,,,0.00,Wunderground v.1.15,2013-10-27 23:33:00,
2013-10-27 19:39:00,42.2,31.6,30.04,West,266,0.0,1.0,66,0.00,,,0.00,Wunderground v.1.15,2013-10-27 23:39:00,
2013-10-27 19:44:00,41.9,31.4,30.04,West,266,0.0,0.0,66,0.00,,,0.00,Wunderground v.1.15,2013-10-27 23:44:00,
2013-10-27 19:49:00,41.5,31.7,30.04,WSW,244,0.0,2.0,68,0.00,,,0.00,Wunderground v.1.15,2013-10-27 23:49:00,
2013-10-27 19:55:00,41.6,31.8,30.04,WSW,255,0.0,0.0,68,0.00,,,0.00,Wunderground v.1.15,2013-10-27 23:55:00,
2013-10-27 20:01:00,41.7,32.3,30.05,WSW,257,0.0,0.0,69,0.00,,,0.00,Wunderground v.1.15,2013-10-28 00:01:00,
2013-10-27 20:06:00,42.0,32.6,30.05,WNW,298,0.0,0.0,69,0.00,,,0.00,Wunderground v.1.15,2013-10-28 00:06:00,
2013-10-27 20:12:00,42.1,32.3,30.05,NNW,328,0.0,0.0,68,0.00,,,0.00,Wunderground v.1.15,2013-10-28 00:12:00,
2013-10-27 20:17:00,42.4,32.2,30.05,WSW,252,0.0,0.0,67,0.00,,,0.00,Wunderground v.1.15,2013-10-28 00:17:00,
2013-10-27 20:22:00,42.8,32.2,30.05,WSW,243,0.0,0.0,66,0.00,,,0.00,Wunderground v.1.15,2013-10-28 00:22:00,
2013-10-27 20:27:00,43.2,32.2,30.05,WSW,242,0.0,0.0,65,0.00,,,0.00,Wunderground v.1.15,2013-10-28 00:27:00,
2013-10-27 20:33:00,43.6,32.2,30.05,SE,126,0.0,0.0,64,0.00,,,0.00,Wunderground v.1.15,2013-10-28 00:33:00,
2013-10-27 20:39:00,43.7,32.3,30.05,NNE,23,0.0,1.0,64,0.00,,,0.00,Wunderground v.1.15,2013-10-28 00:39:00,
2013-10-27 20:44:00,43.9,32.1,30.05,West,276,0.0,2.0,63,0.00,,,0.00,Wunderground v.1.15,2013-10-28 00:44:00,
2013-10-27 20:49:00,44.0,32.2,30.05,SSW,211,0.0,4.0,63,0.00,,,0.00,Wunderground v.1.15,2013-10-28 00:49:00,
2013-10-27 20:54:00,44.1,32.3,30.05,WSW,255,0.0,0.0,63,0.00,,,0.00,Wunderground v.1.15,2013-10-28 00:54:00,
2013-10-27 21:00:00,44.1,32.3,30.04,NNW,347,0.0,0.0,63,0.00,,,0.00,Wunderground v.1.15,2013-10-28 01:00:00,
2013-10-27 21:06:00,44.0,32.2,30.04,North,356,0.0,1.0,63,0.00,,,0.00,Wunderground v.1.15,2013-10-28 01:06:00,
2013-10-27 21:11:00,43.7,31.9,30.04,WSW,257,0.0,0.0,63,0.00,,,0.00,Wunderground v.1.15,2013-10-28 01:11:00,
2013-10-27 21:16:00,43.5,32.1,30.04,WSW,256,0.0,0.0,64,0.00,,,0.00,Wunderground v.1.15,2013-10-28 01:16:00,
2013-10-27 21:22:00,43.0,32.0,30.04,WSW,256,0.0,0.0,65,0.00,,,0.00,Wunderground v.1.15,2013-10-28 01:22:00,
2013-10-27 21:27:00,42.5,32.3,30.04,WSW,256,0.0,0.0,67,0.00,,,0.00,Wunderground v.1.15,2013-10-28 01:27:00,
2013-10-27 21:33:00,42.0,32.2,30.04,WSW,256,0.0,0.0,68,0.00,,,0.00,Wunderground v.1.15,2013-10-28 01:33:00,
2013-10-27 21:39:00,41.8,32.7,30.04,WSW,256,0.0,0.0,70,0.00,,,0.00,Wunderground v.1.15,2013-10-28 01:39:00,
2013-10-27 21:44:00,41.6,32.5,30.04,WSW,256,0.0,0.0,70,0.00,,,0.00,Wunderground v.1.15,2013-10-28 01:44:00,
2013-10-27 21:49:00,41.6,32.9,30.04,WSW,248,0.0,0.0,71,0.00,,,0.00,Wunderground v.1.15,2013-10-28 01:49:00,
2013-10-27 21:54:00,41.5,33.1,30.05,WSW,248,0.0,0.0,72,0.00,,,0.00,Wunderground v.1.15,2013-10-28 01:54:00,
2013-10-27 22:00:00,41.6,33.2,30.05,WSW,239,0.0,0.0,72,0.00,,,0.00,Wunderground v.1.15,2013-10-28 02:00:00,
2013-10-27 22:06:00,41.5,33.5,30.05,WSW,239,0.0,0.0,73,0.00,,,0.00,Wunderground v.1.15,2013-10-28 02:06:00,
2013-10-27 22:11:00,41.3,33.3,30.05,WSW,239,0.0,0.0,73,0.00,,,0.00,Wunderground v.1.15,2013-10-28 02:11:00,
2013-10-27 22:17:00,41.0,33.0,30.05,WSW,239,0.0,0.0,73,0.00,,,0.00,Wunderground v.1.15,2013-10-28 02:17:00,
2013-10-27 22:23:00,40.8,33.8,30.05,WSW,239,0.0,0.0,76,0.00,,,0.00,Wunderground v.1.15,2013-10-28 02:23:00,
2013-10-27 22:29:00,40.7,33.7,30.05,WSW,239,0.0,0.0,76,0.00,,,0.00,Wunderground v.1.15,2013-10-28 02:29:00,
2013-10-27 22:34:00,40.8,34.1,30.05,WSW,239,0.0,0.0,77,0.00,,,0.00,Wunderground v.1.15,2013-10-28 02:34:00,
2013-10-27 22:40:00,41.0,34.3,30.05,WSW,238,0.0,0.0,77,0.00,,,0.00,Wunderground v.1.15,2013-10-28 02:40:00,
2013-10-27 22:45:00,41.0,33.3,30.05,WSW,239,0.0,0.0,74,0.00,,,0.00,Wunderground v.1.15,2013-10-28 02:45:00,
2013-10-27 22:51:00,41.4,33.4,30.05,SW,232,0.0,0.0,73,0.00,,,0.00,Wunderground v.1.15,2013-10-28 02:51:00,
2013-10-27 22:56:00,41.7,33.7,30.05,SSW,207,0.0,0.0,73,0.00,,,0.00,Wunderground v.1.15,2013-10-28 02:56:00,
2013-10-27 23:01:00,41.8,34.1,30.05,SSW,207,0.0,0.0,74,0.00,,,0.00,Wunderground v.1.15,2013-10-28 03:01:00,
2013-10-27 23:06:00,41.8,33.8,30.05,SSW,207,0.0,0.0,73,0.00,,,0.00,Wunderground v.1.15,2013-10-28 03:06:00,
2013-10-27 23:12:00,42.2,34.2,30.05,SW,215,0.0,0.0,73,0.00,,,0.00,Wunderground v.1.15,2013-10-28 03:12:00,
2013-10-27 23:17:00,42.4,34.4,30.05,SW,215,0.0,0.0,73,0.00,,,0.00,Wunderground v.1.15,2013-10-28 03:17:00,
2013-10-27 23:24:00,42.5,35.1,30.05,SW,215,0.0,0.0,75,0.00,,,0.00,Wunderground v.1.15,2013-10-28 03:24:00,
2013-10-27 23:29:00,42.9,35.9,30.05,SSW,201,0.0,0.0,76,0.00,,,0.00,Wunderground v.1.15,2013-10-28 03:29:00,
2013-10-27 23:35:00,43.9,37.2,30.04,SE,125,0.0,2.0,77,0.00,,,0.00,Wunderground v.1.15,2013-10-28 03:35:00,
2013-10-27 23:41:00,44.8,37.7,30.04,WSW,245,1.0,1.0,76,0.00,,,0.00,Wunderground v.1.15,2013-10-28 03:41:00,
2013-10-27 23:46:00,45.3,37.8,30.04,South,191,1.0,2.0,75,0.00,,,0.00,Wunderground v.1.15,2013-10-28 03:46:00,
2013-10-27 23:52:00,45.6,37.8,30.05,SSW,193,1.0,1.0,74,0.00,,,0.00,Wunderground v.1.15,2013-10-28 03:52:00,
2013-10-27 23:58:00,45.7,37.9,30.04,SW,228,0.0,1.0,74,0.00,,,0.00,Wunderground v.1.15,2013-10-28 03:58:00,